Погода в Рассвете

Россия / Республика Северная Осетия — Алания     43°04′53″N   44°25′25″E
темп.,
°C
ветер,
м/с
пор.,
м/с
влажн.,
%
обл.,
%
осадки,
мм/ч
давл.,
гПа
погр.,
м
7 марта, вс
вс700:00+4ююз3348100 0.0 101636
03:00+2с135598 0.0 101886
06:00−4сз349685 4.6 1022423
09:00−4с339492 6.0 1022380
12:00−3с3384100 1.2 1022559
15:00−2св237098 1.9 1021823
18:00−4всв237399 0.1 1023179
21:00−6юв127173 0.1 1023133
8 марта, пн
пн800:00−5ю11660 0.0 102258
03:00−6зюз12720 0.0 102297
06:00−6юз11720 0.0 102264
09:00−3ссз116411 0.0 1020342
12:000ссв2261100 0.0 1017645
15:000с1161100 0.1 1016774
18:00−2ссз1177100 0.2 1018165
21:00−3ю118199 0.4 102073
9 марта, вт
вт900:00−4ююв017679 0.0 101951
03:00−4ю017665 0.0 101862
06:00−5ю118181 0.1 101860
09:00−2ссв117775 0.1 1018392
12:00+1ссв226952 0.0 1016744
15:00+2св216463 0.1 1016801
18:000ссз016944 0.0 1018194
21:00−2ююз127470 0.1 1021151
10 марта, ср
ср1000:00−4юз127867 0.4 1022101
03:00−5ююз228261 1.8 102468
06:00−4ю2287100 0.6 1025117
09:00−3ссв349485 1.1 1025386
12:00−3ссв3385100 0.9 1022528
15:00−2св2381100 1.3 1021548
18:00−3св238999 0.4 1021332
21:00−4св2490100 0.7 1021388
11 марта, чт
чт1100:00−4всв2486100 0.1 1019351
03:00−5сз1187100 0.1 1018186
06:00−5ссв1291100 0.1 1017307
09:00−4ссв2389100 0.5 1016381
12:00−3св3589100 0.9 1013548
15:00−4св4693100 3.2 1013532
18:00−6св3592100 2.6 1016483
21:00−8св2493100 3.6 1019372